Precipitable_Water
0.61 0.60 0.60 0.59 0.59 0.58 0.57 0.56 0.55 0.55 0.55 0.55 0.54 0.55 0.54 0.53 0.51 0.45 0.36 0.49 0.52 0.63 0.61 0.59 0.58 0.57 0.56 0.51 0.53 0.52 0.29 0.24 0.26 0.26 0.27 0.38 0.35 0.43 0.44 0.37 0.40 0.43 0.41 0.44 0.53
0.62 0.61 0.60 0.59 0.58 0.57 0.57 0.56 0.55 0.53 0.54 0.53 0.52 0.52 0.51 0.49 0.39 0.30 0.42 0.52 0.54 0.61 0.53 0.49 0.46 0.51 0.44 0.45 0.49 0.40 0.29 0.28 0.34 0.32 0.31 0.37 0.39 0.40 0.42 0.40 0.37 0.40 0.44 0.46 0.52
0.65 0.64 0.62 0.60 0.59 0.58 0.57 0.56 0.55 0.52 0.49 0.49 0.52 0.52 0.49 0.46 0.29 0.27 0.47 0.55 0.56 0.60 0.59 0.56 0.54 0.49 0.39 0.45 0.43 0.42 0.28 0.34 0.36 0.40 0.42 0.40 0.40 0.45 0.42 0.34 0.43 0.41 0.41 0.45 0.52
0.67 0.65 0.63 0.60 0.57 0.53 0.51 0.50 0.51 0.52 0.52 0.51 0.51 0.51 0.50 0.42 0.16 0.38 0.53 0.56 0.59 0.66 0.58 0.52 0.48 0.41 0.36 0.35 0.44 0.32 0.38 0.37 0.39 0.44 0.43 0.40 0.44 0.40 0.42 0.37 0.47 0.49 0.48 0.45 0.49
0.66 0.64 0.59 0.54 0.50 0.48 0.48 0.48 0.48 0.52 0.53 0.51 0.50 0.49 0.40 0.26 0.24 0.50 0.55 0.56 0.63 0.59 0.50 0.47 0.42 0.41 0.33 0.35 0.38 0.33 0.35 0.39 0.41 0.43 0.43 0.45 0.41 0.40 0.37 0.44 0.47 0.48 0.49 0.44 0.49
0.59 0.56 0.53 0.51 0.51 0.50 0.49 0.48 0.46 0.47 0.49 0.51 0.52 0.51 0.34 0.19 0.34 0.48 0.50 0.54 0.54 0.52 0.47 0.49 0.44 0.48 0.39 0.37 0.35 0.36 0.36 0.37 0.39 0.39 0.42 0.39 0.40 0.42 0.37 0.46 0.44 0.46 0.45 0.45 0.46
0.53 0.52 0.51 0.50 0.50 0.49 0.48 0.48 0.47 0.47 0.49 0.53 0.57 0.50 0.34 0.24 0.40 0.52 0.52 0.48 0.55 0.54 0.46 0.52 0.55 0.45 0.45 0.37 0.46 0.41 0.29 0.34 0.36 0.37 0.37 0.41 0.32 0.33 0.42 0.44 0.40 0.40 0.40 0.45 0.40
0.53 0.52 0.51 0.49 0.48 0.48 0.47 0.49 0.49 0.50 0.52 0.57 0.61 0.52 0.28 0.43 0.44 0.51 0.53 0.49 0.57 0.62 0.57 0.59 0.60 0.49 0.45 0.48 0.40 0.33 0.33 0.23 0.35 0.36 0.39 0.38 0.22 0.34 0.42 0.43 0.39 0.39 0.41 0.44 0.39
0.52 0.52 0.50 0.48 0.47 0.45 0.44 0.48 0.50 0.53 0.54 0.58 0.52 0.44 0.27 0.49 0.36 0.46 0.51 0.45 0.54 0.59 0.60 0.63 0.58 0.45 0.47 0.35 0.30 0.31 0.21 0.22 0.25 0.34 0.33 0.34 0.24 0.34 0.41 0.42 0.40 0.38 0.35 0.41 0.45
0.51 0.49 0.46 0.43 0.43 0.41 0.39 0.47 0.52 0.54 0.58 0.59 0.47 0.36 0.33 0.29 0.40 0.41 0.50 0.51 0.47 0.51 0.50 0.50 0.47 0.37 0.38 0.32 0.20 0.22 0.25 0.22 0.21 0.28 0.32 0.28 0.25 0.30 0.37 0.39 0.38 0.38 0.35 0.36 0.42
0.48 0.43 0.40 0.38 0.36 0.35 0.37 0.37 0.34 0.35 0.42 0.28 0.29 0.25 0.27 0.41 0.48 0.40 0.43 0.42 0.44 0.42 0.30 0.44 0.34 0.26 0.29 0.36 0.33 0.27 0.24 0.20 0.21 0.29 0.27 0.21 0.20 0.22 0.30 0.32 0.32 0.33 0.34 0.33 0.37
0.45 0.43 0.42 0.40 0.38 0.45 0.48 0.34 0.37 0.42 0.23 0.27 0.25 0.27 0.32 0.36 0.31 0.41 0.46 0.32 0.32 0.26 0.35 0.33 0.28 0.32 0.34 0.36 0.33 0.28 0.23 0.19 0.22 0.28 0.26 0.21 0.16 0.21 0.28 0.31 0.31 0.31 0.31 0.33 0.37
0.43 0.42 0.39 0.36 0.35 0.46 0.43 0.39 0.50 0.47 0.23 0.22 0.25 0.23 0.24 0.27 0.25 0.29 0.43 0.37 0.32 0.27 0.27 0.23 0.25 0.30 0.27 0.28 0.26 0.22 0.20 0.19 0.18 0.21 0.22 0.22 0.14 0.17 0.27 0.30 0.32 0.30 0.31 0.32 0.34
0.36 0.34 0.31 0.29 0.30 0.25 0.29 0.43 0.45 0.43 0.12 0.15 0.16 0.24 0.29 0.31 0.22 0.38 0.48 0.39 0.31 0.23 0.26 0.25 0.27 0.24 0.25 0.23 0.24 0.18 0.25 0.22 0.18 0.17 0.12 0.21 0.09 0.14 0.21 0.23 0.29 0.29 0.31 0.29 0.31
0.31 0.30 0.34 0.28 0.20 0.22 0.36 0.45 0.45 0.35 0.05 0.15 0.19 0.36 0.30 0.24 0.29 0.31 0.47 0.43 0.26 0.26 0.24 0.21 0.21 0.20 0.21 0.23 0.27 0.22 0.29 0.22 0.20 0.17 0.16 0.14 0.13 0.12 0.17 0.20 0.25 0.30 0.31 0.33 0.33
0.28 0.38 0.40 0.32 0.30 0.34 0.43 0.47 0.39 0.13 0.06 0.11 0.22 0.22 0.23 0.26 0.26 0.35 0.36 0.44 0.39 0.29 0.29 0.23 0.32 0.26 0.24 0.28 0.29 0.33 0.25 0.23 0.22 0.20 0.09 0.11 0.11 0.13 0.14 0.19 0.24 0.29 0.32 0.34 0.35
0.29 0.38 0.40 0.43 0.29 0.39 0.43 0.35 0.12 0.08 0.11 0.12 0.15 0.19 0.17 0.18 0.23 0.26 0.26 0.25 0.20 0.16 0.16 0.20 0.20 0.27 0.28 0.23 0.30 0.28 0.21 0.12 0.12 0.12 0.09 0.18 0.14 0.12 0.16 0.21 0.24 0.27 0.31 0.34 0.36
0.29 0.37 0.34 0.33 0.44 0.46 0.33 0.19 0.08 0.08 0.13 0.21 0.18 0.16 0.14 0.19 0.21 0.22 0.22 0.21 0.28 0.25 0.19 0.13 0.11 0.19 0.25 0.20 0.16 0.19 0.17 0.10 0.07 0.08 0.13 0.23 0.11 0.12 0.20 0.24 0.27 0.29 0.32 0.35 0.38
0.23 0.30 0.21 0.26 0.40 0.41 0.27 0.13 0.12 0.16 0.17 0.15 0.15 0.12 0.13 0.20 0.17 0.17 0.19 0.22 0.27 0.28 0.20 0.15 0.12 0.22 0.24 0.25 0.24 0.20 0.19 0.23 0.16 0.16 0.13 0.12 0.14 0.16 0.15 0.16 0.21 0.26 0.32 0.33 0.35
0.19 0.25 0.16 0.19 0.37 0.36 0.21 0.15 0.19 0.21 0.18 0.18 0.12 0.16 0.15 0.19 0.17 0.20 0.20 0.24 0.22 0.28 0.29 0.23 0.14 0.19 0.23 0.29 0.26 0.25 0.29 0.20 0.21 0.11 0.10 0.09 0.10 0.12 0.14 0.15 0.20 0.24 0.29 0.31 0.34
0.18 0.18 0.15 0.22 0.33 0.28 0.17 0.20 0.21 0.23 0.20 0.16 0.16 0.17 0.17 0.17 0.18 0.16 0.16 0.24 0.25 0.25 0.29 0.27 0.24 0.17 0.28 0.22 0.20 0.23 0.20 0.23 0.23 0.17 0.10 0.08 0.10 0.21 0.18 0.22 0.23 0.26 0.30 0.33 0.34
0.20 0.11 0.17 0.19 0.12 0.13 0.13 0.13 0.16 0.16 0.17 0.14 0.14 0.13 0.16 0.16 0.14 0.14 0.15 0.21 0.27 0.23 0.20 0.26 0.23 0.17 0.19 0.26 0.29 0.29 0.24 0.25 0.19 0.13 0.18 0.16 0.12 0.25 0.23 0.27 0.28 0.29 0.32 0.33 0.34
0.17 0.17 0.24 0.20 0.09 0.09 0.12 0.11 0.13 0.13 0.13 0.12 0.11 0.14 0.15 0.12 0.10 0.12 0.14 0.18 0.18 0.18 0.18 0.19 0.19 0.13 0.13 0.18 0.25 0.28 0.29 0.30 0.29 0.25 0.17 0.16 0.13 0.21 0.26 0.28 0.30 0.31 0.34 0.34 0.35
0.21 0.15 0.18 0.20 0.21 0.15 0.13 0.11 0.11 0.15 0.14 0.14 0.13 0.14 0.12 0.12 0.14 0.12 0.13 0.15 0.17 0.17 0.17 0.20 0.15 0.14 0.11 0.13 0.20 0.20 0.24 0.26 0.25 0.21 0.21 0.20 0.16 0.22 0.23 0.26 0.30 0.31 0.34 0.35 0.34
0.27 0.20 0.22 0.14 0.15 0.15 0.17 0.15 0.13 0.12 0.15 0.14 0.12 0.12 0.13 0.13 0.12 0.11 0.13 0.14 0.14 0.15 0.17 0.16 0.12 0.13 0.14 0.15 0.15 0.15 0.17 0.19 0.19 0.20 0.18 0.19 0.22 0.21 0.24 0.27 0.28 0.32 0.35 0.36 0.34
0.24 0.23 0.26 0.21 0.20 0.17 0.17 0.16 0.15 0.14 0.15 0.14 0.13 0.15 0.17 0.13 0.12 0.11 0.14 0.14 0.13 0.14 0.14 0.17 0.12 0.12 0.10 0.10 0.11 0.10 0.13 0.16 0.17 0.18 0.20 0.19 0.20 0.31 0.30 0.30 0.30 0.33 0.34 0.31 0.33
0.38 0.37 0.29 0.22 0.19 0.18 0.16 0.16 0.17 0.19 0.18 0.18 0.18 0.17 0.16 0.16 0.19 0.18 0.18 0.19 0.16 0.14 0.13 0.13 0.13 0.11 0.08 0.09 0.11 0.08 0.08 0.09 0.12 0.16 0.18 0.17 0.22 0.29 0.35 0.38 0.38 0.36 0.34 0.30 0.30
Wind_Speed
8 8 8 8 9 9 10 11 11 12 12 13 14 14 15 16 17 16 16 14 14 14 15 15 15 15 15 16 16 17 18 19 21 20 20 18 21 21 21 24 25 27 30 29 30
9 9 9 9 10 10 11 11 12 13 13 14 15 16 16 17 19 20 16 15 15 15 16 16 16 16 16 17 17 17 19 20 19 20 22 23 23 24 25 26 27 28 29 29 27
10 10 11 11 11 12 12 13 13 14 14 15 15 16 17 18 19 14 12 15 16 16 17 17 17 18 19 19 19 18 20 20 21 22 23 24 25 25 26 27 27 28 28 28 28
12 12 13 13 13 13 14 14 15 16 16 17 18 18 19 18 17 16 16 17 17 17 17 17 18 18 20 20 20 21 23 24 24 23 24 25 25 26 27 29 27 28 28 27 28
14 14 14 15 15 16 17 17 18 18 19 19 20 20 20 20 22 20 19 19 19 19 19 19 20 21 21 20 22 25 25 25 24 23 25 26 26 28 29 28 28 28 27 26 27
16 17 17 18 19 19 20 21 22 22 22 23 23 23 23 24 22 22 22 21 22 22 21 21 21 22 23 23 23 22 23 25 26 27 26 27 27 26 25 23 23 24 25 25 25
19 20 21 22 23 24 24 25 26 26 26 26 25 25 27 28 26 25 25 25 25 24 23 23 23 23 21 23 24 25 27 27 27 24 21 21 23 23 24 23 24 22 22 22 23
22 23 24 26 27 28 29 29 30 29 29 28 27 28 29 27 29 28 27 27 25 25 26 25 25 26 25 25 24 23 23 20 14 17 18 17 22 24 21 19 21 22 20 20 21
26 27 28 30 30 31 32 33 32 30 29 28 28 29 31 27 27 27 26 25 26 27 27 27 26 26 24 24 24 21 21 21 21 17 18 18 23 20 20 22 23 23 22 19 17
29 30 32 33 33 34 35 34 31 30 29 28 30 28 28 28 27 27 27 27 26 26 26 26 26 26 23 23 20 19 21 23 22 18 20 25 29 28 26 25 25 26 24 21 20
31 32 33 34 34 35 32 30 29 30 30 30 30 32 29 30 29 28 26 26 26 26 26 25 25 25 25 26 27 25 24 25 24 24 23 25 27 29 27 24 23 22 20 18 20
33 34 36 36 36 34 32 30 30 32 36 36 38 40 37 34 31 27 26 26 25 25 23 22 24 26 27 25 23 24 25 25 22 16 20 25 29 30 22 16 18 19 17 17 20
35 36 37 37 35 32 30 29 31 31 32 32 28 28 26 25 26 24 23 23 20 23 24 26 22 17 20 25 23 24 24 24 25 24 24 21 23 14 12 12 14 15 12 12 19
36 37 36 35 31 29 28 29 29 28 29 28 23 19 16 16 17 18 21 20 23 24 25 26 28 29 23 23 22 24 21 21 22 20 17 17 19 20 14 13 11 12 10 10 17
38 36 34 31 30 29 29 29 27 25 25 20 20 20 20 20 18 19 22 25 26 23 22 23 23 22 27 29 26 23 20 21 22 23 24 20 18 16 18 13 8 8 10 10 10
37 33 32 29 28 28 28 27 24 22 25 20 21 21 21 21 21 20 22 25 24 29 30 32 24 24 26 24 25 21 22 23 22 21 22 24 21 16 14 9 8 7 8 7 8
36 31 30 29 28 29 27 23 23 23 20 21 23 23 25 24 23 24 24 25 25 24 28 30 35 32 29 28 26 26 23 20 20 19 21 16 18 23 20 14 14 13 10 11 11
35 32 31 29 30 27 24 23 26 23 23 25 26 30 26 24 24 25 26 29 31 33 30 29 28 28 29 33 26 31 27 23 22 21 20 16 20 18 14 12 13 13 13 12 12
35 31 31 31 30 25 23 24 25 25 27 29 31 28 26 25 27 27 28 28 23 23 28 28 31 24 28 28 30 26 30 29 29 30 24 26 27 29 28 23 20 16 12 10 9
34 31 31 33 28 26 26 26 26 26 29 29 28 27 27 28 28 25 26 24 25 26 29 30 34 34 33 29 30 30 25 23 25 22 25 25 26 24 19 21 21 18 15 12 11
34 30 32 34 29 27 27 26 28 29 29 29 30 31 32 31 30 32 30 24 25 28 28 28 30 31 26 31 31 29 30 29 27 29 27 27 24 22 21 23 19 19 18 15 13
34 31 34 34 27 27 26 29 30 30 29 30 30 32 30 31 33 34 32 30 28 29 30 28 30 33 40 37 32 35 35 36 31 32 29 30 32 17 18 17 19 19 19 17 15
36 34 34 34 28 30 30 31 30 31 30 30 30 29 32 34 33 31 32 33 36 33 29 29 29 32 37 38 37 31 34 36 36 37 39 32 29 27 22 21 21 22 22 20 17
37 34 35 31 31 32 31 30 30 29 30 28 30 32 31 31 31 33 36 35 33 34 35 35 37 39 37 39 34 34 34 35 31 29 37 40 40 33 28 24 23 24 25 24 20
36 34 34 34 33 33 31 31 30 29 28 29 28 28 28 28 31 31 33 32 32 34 33 32 36 37 41 42 44 45 43 42 40 39 33 36 41 40 37 28 25 22 24 27 26
37 36 34 36 34 32 30 27 30 28 27 27 27 26 26 27 27 28 28 28 29 27 30 32 33 35 41 43 44 49 48 48 48 46 44 45 43 40 34 38 38 29 27 27 26
37 35 33 31 30 27 26 26 28 27 27 26 26 26 25 24 24 25 25 26 27 28 28 29 29 32 38 39 38 42 47 52 51 49 45 44 41 35 37 34 33 32 30 28 27
Wind_Direction
347 339 331 324 317 309 303 297 292 285 282 283 286 289 291 293 293 288 282 280 280 282 284 285 285 289 289 289 290 292 289 291 292 294 296 295 294 294 292 289 285 282 280 277 272
341 337 330 325 320 315 309 303 297 290 286 286 288 289 292 295 294 286 277 276 281 281 281 281 282 286 286 286 288 285 285 293 296 296 294 294 294 294 293 290 287 285 282 276 271
330 328 325 321 317 314 310 306 301 295 289 287 288 291 292 296 294 286 274 278 282 280 282 283 284 284 283 284 280 284 287 292 294 292 293 292 293 293 291 289 289 289 286 276 267
323 319 317 315 313 310 308 306 303 297 292 288 288 290 291 290 290 286 279 282 281 278 279 281 282 281 284 279 280 284 283 287 290 290 290 290 294 291 290 290 292 292 289 277 269
317 315 313 310 308 306 304 303 301 298 294 290 289 289 289 283 281 282 278 278 277 275 274 277 279 281 282 283 283 278 283 287 290 291 289 291 289 290 291 291 291 290 287 278 266
310 309 307 306 304 303 301 300 298 296 292 290 287 287 284 281 285 279 276 275 275 272 272 274 281 281 284 281 278 287 289 287 288 288 289 288 290 289 291 297 295 293 286 279 260
307 305 304 302 301 299 298 297 296 294 291 288 285 284 281 278 284 276 275 274 273 270 271 274 278 277 285 280 280 283 286 288 284 284 288 296 291 285 293 294 293 293 291 283 258
305 303 302 301 299 298 296 295 294 292 290 286 284 282 282 284 280 274 273 273 270 269 272 274 275 276 276 280 281 277 281 287 283 286 289 290 292 297 298 294 294 293 289 284 261
303 302 301 300 298 297 295 293 292 289 287 284 283 281 284 284 279 272 268 269 267 269 271 273 273 273 272 273 277 266 277 279 290 290 291 278 294 297 302 298 292 292 286 279 254
303 302 301 300 298 297 295 292 289 287 286 283 284 283 279 282 279 273 268 268 267 267 271 268 269 269 266 260 264 274 269 278 285 287 282 284 285 292 294 292 288 286 283 271 243
304 303 302 301 300 299 296 291 288 286 282 279 282 281 283 282 278 272 263 262 266 264 265 261 264 260 261 256 261 274 277 279 284 289 290 288 291 295 296 291 289 288 277 260 232
305 304 302 300 299 297 292 290 290 289 288 282 280 279 277 277 275 267 259 257 258 257 258 259 262 264 264 261 263 264 271 277 283 283 288 292 294 294 293 288 295 295 273 254 227
306 305 303 300 298 294 293 292 291 291 288 288 285 283 282 269 266 261 251 246 250 255 256 257 263 275 266 251 257 259 264 275 284 292 289 294 292 304 297 292 293 299 278 261 224
310 307 304 301 295 295 291 294 292 291 288 286 285 282 277 272 267 260 245 248 253 263 259 266 265 260 258 253 254 263 268 275 279 286 284 302 286 292 294 297 287 289 280 264 231
313 310 307 302 296 293 293 293 290 288 287 288 281 279 276 269 272 262 256 254 260 259 258 264 264 261 254 254 254 258 267 273 277 278 284 276 277 279 286 284 294 292 290 266 247
316 311 309 303 297 295 293 291 285 281 276 279 280 282 278 268 268 267 259 260 267 263 261 262 265 263 256 257 250 263 264 268 272 274 269 265 257 272 282 282 262 284 292 268 248
317 311 310 307 299 296 292 285 281 273 282 284 283 285 284 274 270 265 259 258 260 264 261 264 258 256 254 255 252 253 258 267 264 262 265 270 259 261 278 263 267 277 273 272 259
317 311 310 308 303 297 287 280 274 282 283 287 285 284 274 281 270 270 268 264 259 262 270 267 266 248 249 248 252 245 244 252 261 260 265 253 255 262 260 268 258 264 272 262 251
317 310 311 309 306 296 287 279 286 289 287 289 289 279 270 271 279 275 266 270 269 276 265 268 261 261 254 252 247 252 247 251 261 263 261 256 258 264 262 258 257 254 254 248 248
317 309 312 313 305 296 287 283 285 287 288 285 282 278 276 278 281 277 271 273 272 274 273 267 267 261 258 253 253 252 251 243 247 251 250 256 257 256 261 255 247 238 235 242 252
317 309 314 314 303 295 289 289 288 286 289 285 283 280 280 281 275 274 269 271 278 278 273 273 261 258 252 250 249 246 245 245 250 245 250 257 256 251 258 249 234 231 230 241 252
318 311 314 314 306 301 296 295 292 288 287 285 282 279 277 277 276 273 269 268 280 279 271 267 265 261 256 254 254 251 245 243 246 244 245 253 251 256 252 241 232 230 233 241 254
317 311 314 315 305 304 301 296 292 291 291 287 283 280 281 279 277 272 273 270 275 271 267 270 260 266 259 253 251 253 252 251 253 249 246 243 247 236 241 241 240 238 237 239 252
316 312 313 311 309 305 304 299 297 292 290 287 285 284 281 277 276 275 274 274 273 271 270 265 260 255 258 261 263 260 256 255 254 248 249 243 249 243 245 243 241 240 239 237 249
315 313 311 310 310 307 300 299 297 296 295 292 288 285 285 282 282 279 278 278 275 274 270 260 261 260 259 259 258 258 258 256 252 250 249 253 251 242 242 239 234 239 238 240 248
314 314 309 306 308 306 303 296 297 297 298 294 290 287 286 284 282 285 284 281 281 278 267 264 265 266 264 262 260 258 255 253 252 250 251 252 253 247 243 241 241 242 243 245 246
314 312 309 306 309 306 304 302 300 297 298 294 289 289 281 282 282 287 283 280 280 279 273 267 266 266 267 264 265 258 253 252 250 247 246 247 246 249 244 239 240 239 241 246 248